Riverton, WY

2:10 PM MST on February 20, 2017 (GMT -0700)
Thermopolis

Weather History for KTBX - August, 2014

Change the Weather History Date:

Sunday, August 24, 2014

  Actual Average (KRIW) Record (KRIW)
Temperature  
Mean Temperature 42 °F -  
Max Temperature 50 °F 85 °F 95 °F (2011)
Min Temperature 35 °F 46 °F 42 °F (2010)
Degree Days  
Heating Degree Days 22    
Moisture  
Dew Point 39 °F    
Average Humidity 89    
Maximum Humidity 100    
Minimum Humidity 71    
Precipitation  
Precipitation 0.00 in - - ()
Sea Level Pressure  
Sea Level Pressure 30.18 in    
Wind  
Wind Speed 17 mph (NNW)    
Max Wind Speed 25 mph    
Max Gust Speed 25 mph    
Visibility 7 miles    
Events Fog , Snow    
Averages and records for this station are not official NWS values.
T = Trace of Precipitation, MM = Missing Value Source: NWS Daily Summary

Daily Weather History Graph

Daily Weather History Graph

Search for Another Location

Airport or City:

Trip Planner

Search our weather history database for the weather conditions in past years. The results will help you decide how hot, cold, wet, or windy it might be!

Date:

Astronomy

Aug. 24, 2014 Rise Set
Actual Time 6:28 AM MDT 8:01 PM MDT
Civil Twilight 5:57 AM MDT 8:31 PM MDT
Nautical Twilight 5:21 AM MDT 9:07 PM MDT
Astronomical Twilight 4:42 AM MDT 9:46 PM MDT
Moon 5:41 AM MDT (8/24) 7:20 PM MDT (8/24)
Length of Visible Light 14h 33m
Length of Day
13h 33m
Waning Crescent, 1% of the Moon is Illuminated
Aug 24
Waning Crescent
Aug 25
New
Sep 2
First Quarter
Sep 8
Full
Sep 15
Last Quarter

Hourly Weather History & Observations

Time (MDT) Temp. Windchill Dew Point Humidity Pressure Visibility Wind Dir Wind Speed Gust Speed Precip Events Conditions
12:15 AM 41.0 °F 31.1 °F 39.2 °F 93% 30.16 in 0.2 mi WNW 23.0 mph - N/A   Unknown
12:35 AM 39.2 °F 28.5 °F 39.2 °F 100% 30.16 in 0.2 mi NW 24.2 mph - N/A   Unknown
12:55 AM 39.2 °F 28.3 °F 37.4 °F 93% 30.16 in 0.2 mi WNW 25.3 mph - N/A   Unknown
1:15 AM 39.2 °F 28.3 °F 37.4 °F 93% 30.14 in 0.2 mi NW 25.3 mph - N/A   Unknown
1:35 AM 37.4 °F 26.4 °F 37.4 °F 100% 30.14 in 0.2 mi NW 23.0 mph - N/A Snow Snow
1:55 AM 37.4 °F 26.6 °F 37.4 °F 100% 30.15 in 0.2 mi NW 21.9 mph 25.3 mph N/A Snow Light Snow
2:15 AM 37.4 °F 26.9 °F 37.4 °F 100% 30.14 in 0.2 mi NW 20.7 mph - N/A Snow Light Snow
2:35 AM 37.4 °F 26.6 °F 37.4 °F 100% 30.15 in 0.2 mi NW 21.9 mph - N/A Snow Light Snow
2:55 AM 37.4 °F 26.4 °F 37.4 °F 100% 30.15 in 0.2 mi NW 23.0 mph - N/A Snow Light Snow
3:15 AM 37.4 °F 26.9 °F 37.4 °F 100% 30.15 in 0.2 mi NW 20.7 mph - N/A Snow Snow
3:35 AM 35.6 °F 24.5 °F 35.6 °F 100% 30.15 in 0.2 mi NNW 20.7 mph - N/A Fog Fog
3:55 AM 37.4 °F 26.9 °F 35.6 °F 93% 30.15 in 0.2 mi NNW 20.7 mph - N/A Snow Light Snow
4:15 AM 37.4 °F 27.2 °F 35.6 °F 93% 30.15 in 0.2 mi NNW 19.6 mph - N/A Snow Light Snow
4:35 AM 35.6 °F 25.5 °F 35.6 °F 100% 30.15 in 0.2 mi NNW 17.3 mph - N/A Fog Fog
4:55 AM 35.6 °F 25.2 °F 35.6 °F 100% 30.15 in 0.2 mi North 18.4 mph - N/A Snow Light Snow
5:15 AM 35.6 °F 26.2 °F 35.6 °F 100% 30.15 in 0.2 mi North 15.0 mph - N/A Fog Fog
5:35 AM 35.6 °F 27.1 °F 35.6 °F 100% 30.15 in 2.0 mi North 12.7 mph - N/A   Overcast
5:55 AM 35.6 °F 27.1 °F 35.6 °F 100% 30.15 in 0.8 mi North 12.7 mph - N/A   Overcast
6:15 AM 35.6 °F 27.1 °F 35.6 °F 100% 30.15 in 0.5 mi North 12.7 mph - N/A Fog Fog
6:35 AM 35.6 °F 29.9 °F 35.6 °F 100% 30.15 in 0.5 mi North 6.9 mph - N/A Fog Fog
6:55 AM 35.6 °F 28.6 °F 35.6 °F 100% 30.15 in 0.2 mi NNE 9.2 mph - N/A Fog Fog
7:15 AM 35.6 °F 28.6 °F 35.6 °F 100% 30.15 in 10.0 mi NNE 9.2 mph - N/A   Overcast
7:35 AM 35.6 °F 30.7 °F 35.6 °F 100% 30.15 in 2.0 mi NNE 5.8 mph - N/A   Overcast
7:55 AM 35.6 °F 32.8 °F 35.6 °F 100% 30.16 in 10.0 mi NNE 3.5 mph - N/A   Overcast
8:15 AM 37.4 °F 33.8 °F 37.4 °F 100% 30.16 in 0.8 mi NE 4.6 mph - N/A   Overcast
8:35 AM 37.4 °F 34.9 °F 37.4 °F 100% 30.16 in 10.0 mi NE 3.5 mph - N/A   Overcast
8:55 AM 37.4 °F - 37.4 °F 100% 30.16 in 10.0 mi Calm Calm - N/A   Overcast
9:15 AM 37.4 °F 32.1 °F 37.4 °F 100% 30.16 in 1.8 mi NNE 6.9 mph - N/A   Overcast
9:35 AM 37.4 °F - 37.4 °F 100% 30.16 in 7.0 mi Calm Calm - N/A   Overcast
9:55 AM 41.0 °F 39.0 °F 41.0 °F 100% 30.17 in 10.0 mi NNW 3.5 mph - N/A   Overcast
10:15 AM 41.0 °F 36.4 °F 39.2 °F 93% 30.18 in 10.0 mi NW 6.9 mph - N/A   Overcast
10:35 AM 41.0 °F 37.1 °F 41.0 °F 100% 30.18 in 10.0 mi NNW 5.8 mph - N/A   Overcast
10:55 AM 41.0 °F - 41.0 °F 100% 30.18 in 10.0 mi Calm Calm - N/A   Overcast
11:15 AM 42.8 °F - 41.0 °F 93% 30.18 in 10.0 mi Calm Calm - N/A   Overcast
11:35 AM 44.6 °F 42.2 °F 41.0 °F 87% 30.18 in 10.0 mi North 4.6 mph - N/A   Overcast
11:55 AM 44.6 °F - 41.0 °F 87% 30.18 in 10.0 mi Calm Calm - N/A   Overcast
12:15 PM 46.4 °F - 41.0 °F 81% 30.18 in 10.0 mi Calm Calm - N/A   Overcast
12:35 PM 48.2 °F - 41.0 °F 76% 30.18 in 10.0 mi Calm Calm - N/A   Mostly Cloudy
12:55 PM 48.2 °F - 42.8 °F 82% 30.18 in 10.0 mi Calm Calm - N/A   Mostly Cloudy
1:15 PM 50.0 °F - 42.8 °F 76% 30.18 in 10.0 mi ESE 5.8 mph - N/A   Mostly Cloudy
1:35 PM 50.0 °F - 42.8 °F 76% 30.17 in 10.0 mi North 6.9 mph - N/A   Mostly Cloudy
1:55 PM 50.0 °F - 42.8 °F 76% 30.18 in 10.0 mi NNW 10.4 mph - N/A   Scattered Clouds
2:15 PM 50.0 °F - 42.8 °F 76% 30.18 in 10.0 mi NNW 12.7 mph 17.3 mph N/A   Clear
2:35 PM 50.0 °F - 42.8 °F 76% 30.18 in 10.0 mi NNW 11.5 mph 17.3 mph N/A   Scattered Clouds
2:55 PM 50.0 °F - 42.8 °F 76% 30.18 in 10.0 mi NW 15.0 mph 19.6 mph N/A   Scattered Clouds
3:15 PM 50.0 °F - 42.8 °F 76% 30.18 in 10.0 mi NW 16.1 mph 19.6 mph N/A   Scattered Clouds
3:35 PM 50.0 °F - 42.8 °F 76% 30.18 in 10.0 mi NW 15.0 mph 20.7 mph N/A   Mostly Cloudy
3:55 PM 50.0 °F - 42.8 °F 76% 30.18 in 10.0 mi NNW 17.3 mph - N/A   Scattered Clouds
4:15 PM 50.0 °F - 42.8 °F 76% 30.18 in 10.0 mi NW 18.4 mph - N/A   Scattered Clouds
4:35 PM 50.0 °F - 42.8 °F 76% 30.19 in 10.0 mi NW 16.1 mph - N/A   Clear
4:55 PM 50.0 °F - 42.8 °F 76% 30.19 in 10.0 mi NNW 17.3 mph 21.9 mph N/A   Clear
5:15 PM 50.0 °F - 42.8 °F 76% 30.19 in 10.0 mi North 17.3 mph 25.3 mph N/A   Clear
5:35 PM 50.0 °F - 42.8 °F 76% 30.20 in 10.0 mi NNW 18.4 mph - N/A   Clear
5:55 PM 50.0 °F - 41.0 °F 71% 30.21 in 10.0 mi NNW 19.6 mph - N/A   Scattered Clouds
6:15 PM 50.0 °F - 41.0 °F 71% 30.21 in 10.0 mi NNW 20.7 mph - N/A   Scattered Clouds
6:35 PM 50.0 °F - 41.0 °F 71% 30.21 in 10.0 mi NNW 20.7 mph - N/A   Clear
6:55 PM 50.0 °F - 41.0 °F 71% 30.21 in 10.0 mi NNW 21.9 mph - N/A   Clear
7:15 PM 50.0 °F - 41.0 °F 71% 30.21 in 10.0 mi NNW 25.3 mph - N/A   Mostly Cloudy
7:35 PM 48.2 °F - 41.0 °F 76% 30.22 in 10.0 mi NNW 24.2 mph - N/A   Overcast
7:55 PM 46.4 °F 38.1 °F 41.0 °F 81% 30.22 in 10.0 mi NNW 24.2 mph - N/A   Overcast
8:15 PM 44.6 °F 36.1 °F 39.2 °F 81% 30.22 in 10.0 mi NNW 21.9 mph - N/A   Scattered Clouds
8:35 PM 44.6 °F 35.9 °F 39.2 °F 81% 30.23 in 10.0 mi NNW 23.0 mph - N/A   Clear
8:55 PM 42.8 °F 33.3 °F 39.2 °F 87% 30.23 in 10.0 mi North 24.2 mph - N/A   Clear
9:15 PM 42.8 °F 33.5 °F 39.2 °F 87% 30.24 in 10.0 mi NNW 23.0 mph - N/A   Clear
9:35 PM 42.8 °F 33.5 °F 39.2 °F 87% 30.25 in 10.0 mi NNW 23.0 mph - N/A   Clear
9:55 PM 42.8 °F 34.0 °F 39.2 °F 87% 30.26 in 10.0 mi NNW 20.7 mph - N/A   Clear
10:15 PM 42.8 °F 34.3 °F 41.0 °F 93% 30.26 in 10.0 mi NNW 19.6 mph - N/A   Scattered Clouds
10:35 PM 42.8 °F 34.3 °F 41.0 °F 93% 30.26 in 10.0 mi NNW 19.6 mph - N/A   Mostly Cloudy
10:55 PM 42.8 °F 34.0 °F 39.2 °F 87% 30.27 in 10.0 mi North 20.7 mph - N/A   Mostly Cloudy
11:15 PM 41.0 °F 32.2 °F 39.2 °F 93% 30.27 in 10.0 mi NNW 18.4 mph - N/A   Scattered Clouds
11:35 PM 41.0 °F 32.5 °F 39.2 °F 93% 30.28 in 10.0 mi NNW 17.3 mph - N/A   Clear
11:55 PM 41.0 °F 32.8 °F 39.2 °F 93% 30.28 in 10.0 mi NNW 16.1 mph - N/A   Clear